Regional Weather Roundup
Issued by NWS

Home | Current Version | Previous Version | Graphics & Text | Print | Product List | Glossary On
Versions: 1 2 3 4 5 6 7 8 9 10 11 12 13 14 15 16 17 18 19 20 21 22 23 24 25 26 27 28 29 30 31 32 33 34 35 36 37 38 39 40 41 42 43 44 45 46 47 48 49 50
000
ASUS43 KMKX 260800
RWRWI

WISCONSIN REGIONAL WEATHER ROUNDUP
NATIONAL WEATHER SERVICE MILWAUKEE/SULLIVAN WI
300 AM CDT THU MAY 26 2016

NOTE: "FAIR" INDICATES FEW OR NO CLOUDS BELOW 12,000 FEET WITH NO
SIGNIFICANT WEATHER AND/OR OBSTRUCTIONS TO VISIBILITY.

WIZ001-002-006>008-014>016-023>028-260900-
NORTHWEST WISCONSIN

CITY           SKY/WX    TMP DP  RH WIND       PRES   REMARKS
SUPERIOR ARPT  CLOUDY    43  43 100 E8        29.85R FOG
ASHLAND        FOG       48  48 100 CALM      29.84R VSB 1/4
HAYWARD        FOG       53  52  96 CALM      29.83R VSB 1/4
SIREN          FOG       57  56  97 E3        29.80F VSB 1
CUMBERLAND     FOG       57  55  94 NE6       29.80F VSB 1/4
RICE LAKE      CLOUDY    58  57  96 E3        29.81F
CHETEK         FOG       59  59 100 CALM      29.80S VSB 1/4
LADYSMITH      FOG       59  58  97 CALM      29.84S VSB 1/4
EAU CLAIRE     FOG       57  57 100 CALM      29.79S VSB 1/2
MENOMONIE      FOG       61  61 100 CALM      29.80S VSB 1/2
NEW RICHMOND     N/A     61  61 100 S6        29.79F FOG
OSCEOLA        CLOUDY    63  63 100 CALM      29.80F FOG
$$

WIZ003>005-009-010-017-018-260900-
NORTH CENTRAL WISCONSIN

CITY           SKY/WX    TMP DP  RH WIND       PRES   REMARKS
MANITOWISH WTR NOT AVBL
ARBOR VITAE    CLOUDY    62  60  95 W6        29.82S
WOODRUFF       CLOUDY    62  60  95 W6        29.82S
RHINELANDER    CLOUDY    62  59  90 SW12      29.84R
EAGLE RIVER      N/A     60  60  99 SW3       29.82S
LAND O LAKES   LGT RAIN  59  59 100 CALM      29.83S
PHILLIPS       CLOUDY    60  60 100 SW3       29.82S
TOMAHAWK       CLOUDY    61  59  94 CALM      29.84S
MEDFORD        FOG       61  61 100 S7        29.83F VSB 1/4
MERRILL        CLOUDY    62  62 100 SW7       29.84F FOG
$$

WIZ029-030-035-036-043>047-260900-
CENTRAL WISCONSIN

CITY           SKY/WX    TMP DP  RH WIND       PRES   REMARKS
WAUSAU         FOG       63  32  31 SW6       29.82S VSB 1/2
MOSINEE        FOG       61  61 100 S6        29.85F VSB 1/4
MARSHFIELD     FOG       63  61  93 SW6       29.82F VSB 1/4
STEVENS POINT  FOG       60  60 100 S5        29.84F VSB 1/4
WAUPACA        FOG       61  60  97 SE3       29.84F VSB 1/4
WAUTOMA        NOT AVBL
WISC RAPIDS    FOG       62  60  93 SW5       29.84F VSB 1/4
CAMP DOUGLAS   FOG       61 N/A N/A CALM      29.83F VSB 1/4
$$

WIZ011>013-019>022-031-037>040-048>050-260900-
NORTHEAST WISCONSIN

CITY           SKY/WX    TMP DP  RH WIND       PRES   REMARKS
ANTIGO         CLOUDY    60  60 100 SW7       29.85S FOG
SHAWANO        CLOUDY    62  60  94 SW3       29.84F FOG
OCONTO         PTCLDY   N/A N/A N/A CALM      29.83F
STURGEON BAY   NOT AVBL
GREEN BAY      CLEAR     60  59  96 S9        29.83F FOG
MANITOWOC      NOT AVBL
APPLETON       FOG       59  59 100 S5        29.84F VSB 3/4
CLINTONVILLE   FOG       61  59  94 SW8       29.83F VSB 3/4
OSHKOSH        MOCLDY    63  62  97 S10       29.84F FOG
$$

WIZ032>034-041-042-053>061-260900-
SOUTHWEST WISCONSIN

CITY           SKY/WX    TMP DP  RH WIND       PRES   REMARKS
LA CROSSE      CLEAR     64  62  93 E3        29.80F
SPARTA         PTCLDY    55  55 100 CALM      29.83F
VIROQUA        CLEAR     67  60  77 S5        29.84F
BOSCOBEL       FOG       59  58  96 CALM      29.82F VSB 1/4
PRAIRIE DU CHI CLOUDY    63  59  88 CALM      29.81F
PLATTEVILLE    PTCLDY    67  59  76 SE6       29.86F
$$

WIZ056-057-062-063-064-067-068-260900-
SOUTH CENTRAL WISCONSIN

CITY           SKY/WX    TMP DP  RH WIND       PRES   REMARKS
REEDSBURG      CLEAR     62  62 100 CALM      29.84F
BARABOO/DELLS  FOG       63  62  95 CALM      29.84F VSB 1/4
LONE ROCK      NOT AVBL
MINERAL POINT  CLOUDY    64  59  82 SE6       29.87F
MADISON        PTCLDY    66  63  90 S6        29.85F
MIDDLETON      PTCLDY    65  62  89 CALM      29.87F
WATERTOWN      CLEAR     63  63 100 CALM      29.87F
MONROE         CLEAR     63  61  94 S6        29.89F
JANESVILLE     CLEAR     64  64 100 S6        29.88F
$$

WIZ051-052-058>065-066-070>072-260900-
SOUTHEAST WISCONSIN

CITY           SKY/WX    TMP DP  RH WIND       PRES   REMARKS
MILWAUKEE      PTCLDY    62  61  96 SE5       29.89F
WAUKESHA       CLEAR     61  61 100 S8        29.90F FOG
MILWAUKEE/TIMM CLEAR     61  57  88 S3        29.89F FOG
RACINE         CLEAR     64  61  90 SE6       29.91F
BURLINGTON     CLEAR     61  61  99 S5        29.89F FOG
KENOSHA        CLEAR     65  63  93 S8        29.90F
FOND DU LAC    CLEAR     63  62  97 S9        29.85F FOG
SHEBOYGAN      FOG       58  57  97 S5        29.87F VSB 3/4
WEST BEND      FOG       61  61 100 CALM      29.88F VSB 1/4
JUNEAU         FOG       60  59  99 SE6       29.89F VSB<1/4
$$

LSZ147-162-260900-
LAKE SUPERIOR

STATION/POSITION TIME  TEMP    WIND        PRES    WAVE
                       AIR SEA DIR/SP/G            HT/PER
                 (UTC) (F)     (DEG/KT/KT) (MB)    (FT/S)
W MID LAKE BUOY  0650   42 38   70/ 10/ 12 1010.8F   2/ 4
DEVILS ISLAND    0700   42      20/  7/  7 1011.3F
SAXON HARBOR     0700   46     240/  1/  2 1010.2F
$$

LMZ867-665-643>646-260900-
LAKE MICHIGAN

STATION/POSITION TIME  TEMP    WIND        PRES    WAVE
                       AIR SEA DIR/SP/G            HT/PER
                 (UTC) (F)     (DEG/KT/KT) (MB)    (FT/S)
CHAMBERS ISLAND  0740   60     170/  2/  8 1010.8S
N MID LAKE BUOY  0650   52 45  150/ 12/ 12 1012.0R   1
NORTHPORT PIER   0700   53     150/  7/ 10 1011.5S
SISTER BAY       0704   57     170/  8/ 10   N/A
ALGOMA LAKESHORE 0702             CALM       N/A
KEWAUNEE LAKESHO 0700   51      70/  3/  4 1011.0S
SHEBOYGAN LAKESH 0700   54     190/  6/  6 1012.6F
PORT WASHINGTON  0700   53      30/  3/  3 1013.2S
S MID LAKE BUOY  0650   54 49  140/ 10/ 12 1012.7R   1/ 3
KENOSHA   LAKESH 0700   62     190/ 10/ 15 1012.5F
$$

TC  - TEMPERATURE IN CELSIUS
VSB - VISIBILITY IN STATUTE MILES
WCI - WIND CHILL INDEX
HX  - HEAT INDEX




USA.gov is the U.S. government's official web portal to all federal, state and local government web resources and services.